This is the latest recevied weather packets stored in our database for station/object WK7G. If no packets are shown the sender has not sent any weather packets the latest 1 day(s).
| Time | Temp. | Humidity | Pressure | Rain* | Wind** | Luminosity | Snow |
|---|---|---|---|---|---|---|---|
| 1778040425 | 4.44° C | 44% | 1008.1 hPa | 0 mm | - | 0 W/m² | - |
| 1778040121 | 4.44° C | 46% | 1008 hPa | 0 mm | - | 0 W/m² | - |
| 1778039818 | 5° C | 45% | 1008.1 hPa | 0 mm | - | 0 W/m² | - |
| 1778039515 | 5° C | 44% | 1007.9 hPa | 0 mm | - | 0 W/m² | - |
| 1778039212 | 5° C | 44% | 1007.5 hPa | 0 mm | - | 0 W/m² | - |
| 1778038909 | 5° C | 43% | 1007.5 hPa | 0 mm | - | 0 W/m² | - |
| 1778038606 | 5° C | 41% | 1007.3 hPa | 0 mm | - | 0 W/m² | - |
| 1778038303 | 5° C | 43% | 1007.4 hPa | 0 mm | - | 0 W/m² | - |
| 1778038000 | 4.44° C | 43% | 1007.4 hPa | 0 mm | - | 0 W/m² | - |
| 1778037697 | 4.44° C | 44% | 1007.3 hPa | 0 mm | - | 0 W/m² | - |
| 1778037394 | 4.44° C | 46% | 1007.1 hPa | 0 mm | - | 0 W/m² | - |
| 1778037091 | 5° C | 45% | 1007.5 hPa | 0 mm | - | 0 W/m² | - |
| 1778036790 | 5° C | 44% | 1006.8 hPa | 0 mm | - | 0 W/m² | - |
| 1778036486 | 5° C | 45% | 1007 hPa | 0 mm | - | 0 W/m² | - |
| 1778036183 | 5° C | 45% | 1006.7 hPa | 0 mm | - | 0 W/m² | - |
| 1778035879 | 5° C | 45% | 1006.5 hPa | 0 mm | - | 0 W/m² | - |
| 1778035577 | 5° C | 45% | 1006.3 hPa | 0 mm | - | 0 W/m² | - |
| 1778035273 | 5° C | 46% | 1006.3 hPa | 0 mm | - | 0 W/m² | - |
| 1778034969 | 5.56° C | 46% | 1006.1 hPa | 0 mm | - | 0 W/m² | - |
| 1778034667 | 5.56° C | 44% | 1006.2 hPa | 0 mm | - | 1 W/m² | - |
| 1778034364 | 6.11° C | 44% | 1005.8 hPa | 0 mm | - | 3 W/m² | - |
| 1778034061 | 6.11° C | 44% | 1005.7 hPa | 0 mm | - | 6 W/m² | - |
| 1778033759 | 6.67° C | 43% | 1005.6 hPa | 0 mm | - | 12 W/m² | - |
| 1778033456 | 6.67° C | 43% | 1005.2 hPa | 0 mm | - | 20 W/m² | - |
| 1778033153 | 7.78° C | 41% | 1004.9 hPa | 0 mm | - | 23 W/m² | - |
* Rain latest hour (hover to see other rain measurements)
** Current wind speed in m/s (hover to see current wind gust speed)